Location: Newark
(53.3333°N, 83.7500°E)
Time: 16:54:10
(UTC+00:00)

Vanguard 2 - Pass Details

Date: 26 November 2019
Orbit: 553 x 2938 km, 32.9° (Epoch: 14 December)

Event Time Altitude Azimuth Distance (km) Brightness Sun altitude
Rises 22:09:48 0° 195° (SSW) 6,740 12.1 -34.9°
Reaches altitude 10° 22:18:02 10° 174° (S) 5,475 11.8 -33.7°
Maximum altitude 22:24:18 13° 150° (SSE) 4,850 11.8 -32.7°
Drops below altitude 10° 22:29:51 10° 126° (SE) 4,757 12.0 -31.9°
Sets 22:35:48 0° 103° (ESE) 5,245 12.8 -31.0°
